Lid_Strength_Index
2 1 1 1 0 -0 0 0 0 -0 0 0 0 0 0 -0 -1 -1 -1 -1 -1 -1 -1 -1 -1 -1 -1 -2 -1 -1 -1 -1 -1 -2 -1 -2 -1 -1 -1 -0 0 -0 -0
2 2 1 1 1 1 1 1 0 0 0 0 0 0 0 0 -1 -1 -1 -1 -1 -1 -1 -1 -1 -1 -1 -2 -1 -1 -2 -1 -1 -1 -1 -1 -1 -1 -0 0 0 -0 -1
2 2 1 1 1 1 1 1 0 0 1 1 1 0 0 0 -0 -0 -1 -1 -1 -1 -1 -1 -1 -1 -1 -1 -2 -2 -1 -1 -1 -1 -1 -1 -0 -0 0 1 0 -0 -0
2 2 1 2 2 2 2 1 1 1 1 1 1 1 0 -0 -0 -0 -1 -1 -1 -1 -1 -2 -1 -1 -1 -2 -2 -2 -1 -1 -1 -1 -1 -1 -0 -0 0 1 0 -0 -0
1 2 2 2 2 2 2 1 1 1 1 1 1 1 0 0 -0 -0 -0 -1 -1 -1 -1 -1 -1 -1 -1 -1 -2 -1 -1 -1 -1 -1 -1 -1 -0 0 0 0 0 -0 0
1 2 2 2 2 2 2 2 1 1 1 1 1 1 1 0 0 -0 0 -0 -1 -1 -1 -1 -1 -1 -1 -1 -1 -2 -1 -1 -0 -1 -1 -0 -0 0 -0 0 0 -0 0
1 2 2 2 2 2 2 2 1 1 2 1 2 2 1 1 1 0 0 -0 -0 -0 -1 -1 -1 -1 -1 -1 -1 -2 -1 -1 -1 -1 -1 0 -0 -0 -0 -0 -1 -1 -0
1 2 2 2 2 2 2 1 1 2 2 1 3 3 5 3 2 1 1 1 0 -0 -0 -1 -0 -0 -0 -0 -1 -1 -1 -1 -1 -0 -0 -0 -0 -1 -1 -1 -1 -0 -0
1 1 1 1 2 2 2 2 1 1 3 2 2 3 6 6 4 2 1 1 1 0 0 -0 0 0 -0 0 -0 -1 -1 -1 -0 0 1 0 -0 -1 -1 -1 -1 -1 -0
1 1 1 1 2 2 2 1 1 1 1 3 2 1 2 2 5 6 2 2 1 1 1 0 1 0 -0 -0 -1 -1 -0 1 1 1 1 -0 -1 -1 -1 -1 -1 -0 -0
0 1 1 1 1 1 1 1 1 1 1 2 2 2 2 2 2 4 6 4 2 1 1 0 0 -0 0 0 -0 0 1 1 1 0 -1 -2 -2 -1 -1 -1 -1 -0 0
1 1 1 1 1 1 1 1 1 1 1 1 1 1 2 4 4 4 5 4 4 2 1 0 0 0 0 1 -0 0 0 1 1 1 -1 -0 -2 -2 -1 -1 -0 -0 -0
2 2 1 1 1 1 1 1 1 1 1 1 1 1 1 2 2 2 3 4 4 3 2 1 0 0 0 0 0 -0 0 1 2 1 1 -0 -1 -1 -1 -1 -1 -1 0
2 2 1 1 1 1 1 1 1 1 1 1 1 1 1 1 1 2 3 4 5 4 3 3 0 0 1 1 0 -0 1 2 2 2 1 1 0 -0 -0 -0 -0 -0 -0
2 1 1 1 1 1 1 1 1 1 1 1 1 1 1 1 1 1 1 2 4 6 5 3 3 1 0 -0 -0 0 1 2 2 2 2 2 1 1 1 1 1 1 -0
1 1 1 1 1 1 1 1 1 0 1 1 1 1 1 1 1 1 1 1 2 3 5 2 2 1 0 0 -0 1 1 1 2 2 2 2 2 3 2 2 1 0 -1
1 1 1 1 1 1 2 1 1 2 1 1 1 1 1 1 1 1 1 1 2 2 4 3 1 1 1 1 1 1 1 1 1 3 2 3 3 3 3 2 1 1 0
1 1 1 1 1 2 1 1 1 1 1 2 1 1 2 1 1 1 1 2 2 1 2 4 2 2 2 1 2 2 1 1 2 3 3 3 4 4 2 2 2 2 2
1 1 1 1 1 1 2 2 1 1 1 1 1 1 1 1 2 1 1 2 1 1 1 2 3 2 2 2 3 3 3 3 3 2 3 4 3 2 2 3 3 3 4
2 1 1 1 1 1 1 1 1 1 1 1 1 1 1 1 1 1 2 2 1 2 2 2 3 4 3 3 2 3 3 3 3 3 2 2 2 3 4 4 4 3 4
1 1 1 1 1 1 1 1 1 1 1 1 1 1 1 2 2 2 1 2 1 2 2 3 3 3 4 3 3 3 3 3 2 0 1 2 3 3 3 4 3 3 6
1 1 1 1 1 1 7 5 2 1 1 1 2 2 2 3 4 5 4 4 2 2 2 3 3 3 3 3 4 3 3 2 3 1 1 3 3 3 3 3 6 6 6
2 2 2 2 1 2 9 7 5 1 1 1 1 1 1 2 1 2 5 5 5 5 4 2 2 2 3 2 3 3 2 2 2 2 1 3 2 4 4 5 7 7 7
3 3 3 2 2 3 9 8 6 1 2 1 1 1 1 2 2 1 1 1 1 1 2 1 1 1 1 2 1 0 1 1 2 3 2 2 3 4 4 4 6 7 7
4 3 3 2 2 4 9 9 3 1 1 1 1 1 1 1 8 7 1 2 4 4 8 7 7 7 7 7 3 1 1 2 3 3 3 2 3 4 4 5 5 7 7
4 4 4 3 5 3 10 9 4 1 2 2 2 2 5 3 9 8 2 3 3 5 5 6 6 7 7 6 7 0 1 2 5 3 2 3 4 4 5 4 5 6 6